Location: Baller�as
(41.9020°N, 0.1554°W)
Time: 11:20:30
(UTC+00:00)

Cosmos 2219 Rocket - Pass Details

Date: 10 August 2020
Orbit: 826 x 848 km, 71.0° (Epoch: 22 September)

Event Time Altitude Azimuth Distance (km) Brightness Sun altitude
Rises 22:58:25 0° 342° (NNW) 3,415 6.5 -30.8°
Reaches altitude 10° 23:01:04 10° 350° (N) 2,478 5.5 -31.0°
Enters shadow 23:06:01 37° 50° (NE) 1,292 3.2 -31.3°
